Regional Weather Roundup
Issued by NWS

Home | Current Version | Previous Version | Text Only | Print | Product List | Glossary Off
Versions: 1 2 3 4 5 6 7 8 9 10 11 12 13 14 15 16 17 18 19 20 21 22 23 24 25 26 27

000
ASUS45 KBOU 240007
RWRCO

WEATHER ROUNDUP FOR COLORADO
NATIONAL WEATHER SERVICE DENVER/BOULDER CO
600 PM MDT SUN APR 23 2017

NOTE: "FAIR" INDICATES FEW OR NO CLOUDS BELOW 12000 FEET WITH NO
SIGNIFICANT WEATHER AND/OR OBSTRUCTIONS TO VISIBILITY.

COZ001>005-013-030-031-240100-
...NORTHWEST COLORADO...

CITY           SKY/WX    TMP DP  RH WIND       PRES   REMARKS
CRAIG          FAIR      65  23  20 SW20G25   29.77F
HAYDEN         FAIR      63  25  23 W16       29.79F
MEEKER         FAIR      67  24  19 W14       29.79F
MOUNT WERNER   NOT AVBL
STEAMBOAT SPGS FAIR      62  27  25 SW8G16    29.81S
WALDEN           N/A     57  21  24 W17       29.89F
$$

COZ006>008-011-240100-
...WEST CENTRAL VALLEYS...

CITY           SKY/WX    TMP DP  RH WIND       PRES   REMARKS
GRAND JUNCTION FAIR      73  25  16 NW14      29.74S
MONTROSE       FAIR      72  17  12 S9G25     29.81F
EAGLE          MOSUNNY   70  23  17 W20       29.81F
RIFLE          FAIR      71  23  16 W16       29.76R
DELTA          FAIR      77  16  10 SW8G23    29.78S
NUCLA          NOT AVBL
$$

COZ017>023-064>068-240100-
...SOUTHWEST COLORADO...

CITY           SKY/WX    TMP DP  RH WIND       PRES   REMARKS
DURANGO        FAIR      68  21  16 VRB3      29.90F
CORTEZ         FAIR      73  21  14 SW13      29.85F
PAGOSA SPRINGS FAIR      65  13  12 SW9       29.98F
TELLURIDE      FAIR      57  15  19 S13G24    30.03S
WOLF CREEK PAS FAIR      37  19  48 SW23G33   30.21F
$$

COZ009-010-012-014-032>034-037-058>063-240100-
...CENTRAL COLORADO...

CITY           SKY/WX    TMP DP  RH WIND       PRES   REMARKS
ASPEN          FAIR      63  20  19 SW13G24   29.87F
BUENA VISTA    FAIR      65  20  17 S13G28    29.88F
COPPER MTN     FAIR      46  10  23 S6G22     30.12F
BERTHOUD PASS  FAIR      37  28  70 W20       30.13F
COTTONWOOD PAS FAIR      59  12  15 SW12G22   30.00S
GUNNISON       FAIR      64  18  17 W16G25    29.89F
KREMMLING      FAIR      70  18  13 W17G23    29.85F
LEADVILLE      FAIR      53  14  21 SW6       29.98F
MONARCH PASS   FAIR      45  14  29 SW30G41   30.23F
SALIDA         FAIR      69  14  12 SW13G18   29.93F
SUNLIGHT       FAIR      43  23  45 SW15G31   30.05F
WILKERSON PASS FAIR      46  19  34 SW10G20   30.10F
$$

COZ069>075-240100-
...SAN LUIS VALLEY/SANGRE DE CRISTO MOUNTAINS...

CITY           SKY/WX    TMP DP  RH WIND       PRES   REMARKS
ALAMOSA        FAIR      66  14  13 SW21G31   29.93F
LA VETA PASS   FAIR      50  19  29 MISG      30.17F
SAGUACHE       FAIR      64  14  14 W21G28    29.94S
$$

COZ035-036-038>040-240100-
...NORTHERN COLORADO FRONT RANGE...

CITY           SKY/WX    TMP DP  RH WIND       PRES   REMARKS
DENVER INTL AP PTSUNNY   70  35  27 SE17      29.71F
DMNS CITY PARK   N/A     71  36  27 E9G16     29.67F
AURORA         PTSUNNY   71  36  27 S15       29.71F
FRONT RANGE AP PTSUNNY   73  36  25 SE18G25   29.72F
ERIE MUNI ARPT FAIR      75  22  14 NE8       29.69F
BOULDER MUN AP FAIR      72  28  20 CALM      29.70F
CENTENNIAL     PTSUNNY   69  33  26 S16G25    29.71F
BROOMFIELD     PTSUNNY   73  30  20 N9        29.71F
FORT COLLINS   FAIR      66  43  43 N8        29.71F
LONGMONT       FAIR      70  40  32 N8        29.71F
$$

COZ041-046-047-076>085-087-088-240100-
...PIKES PEAK/PALMER DIVIDE AND SOUTHERN FOOTHILLS...

CITY           SKY/WX    TMP DP  RH WIND       PRES   REMARKS
COLO. SPRINGS  PTSUNNY   68  35  29 S21       29.82F
A. F. ACADEMY  FAIR      65  37  34 S13       29.82F
SCHRIEVER AFB  FAIR      64  32  29 S18       29.83F
ELLICOTT       FAIR     N/A N/A N/A S16       29.81F
FALCON         FAIR      63  32  31 S22G29    29.86F
FORT CARSON    FAIR      65  37  34 SE5       29.81F
LIMON          FAIR      65  34  31 S17G28    29.79F
MONUMENT HILL  FAIR      59  34  38 S20G30    29.83F
TRINIDAD       FAIR      78  20  11 W14G26    29.80S
$$

COZ042>045-048>051-090-091-240100-
...NORTHEAST COLORADO...

CITY           SKY/WX    TMP DP  RH WIND       PRES   REMARKS
GREELEY ARPT   FAIR      74  33  22 SE15      29.69F
AKRON          FAIR      66  38  35 S15       29.74F
BURLINGTON     NOT AVBL
WRAY           NOT AVBL
STERLING       FAIR      70  39  32 S14G21    29.70F
HOLYOKE        FAIR      73  39  29 S21G28    29.74F
FORT MORGAN    FAIR      69  38  32 S14       29.72S
$$

COZ086-089-092>099-240100-
...SOUTHEAST COLORADO...

CITY           SKY/WX    TMP DP  RH WIND       PRES   REMARKS
PUEBLO         FAIR      77  35  21 E5        29.72F
LA JUNTA       FAIR      79  32  18 S6        29.72F
LAMAR          FAIR      78  35  21 S25G37    29.72F
SPRINGFIELD      N/A     71  34  25 S29G38    29.82F
$$




USA.gov is the U.S. government's official web portal to all federal, state and local government web resources and services.